[[{"header":{"parameterUnit":"m.s-1","parameterCategory":1,"la1":30.2991,"la2":30.254,"lo1":-89.0895,"lo2":-89.0444,"dy":0.0017,"dx":0.0017,"nx":28,"ny":28,"refTime":"2026-02-13T03:00:00:Z","depth":0,"parameterNumber":2,"parameterNumberName":"U-component_of_WINDS"},"data":[0,0,0,0,0,0,0,0,0,0,0,0,0,0,0,0,0,0,0,0,0,0,0,0,0,0,0,0,0,0,0,0,0,0,0,0,0,0,0,0,0,0,0,0,0,0,0,0,0,0,0,0,0,0,0,0,0,0,-0.1075,-0.1075,0,-0.0988,-0.0987,-0.0986,-0.0932,-0.0932,-0.0931,-0.0931,-0.0836,-0.0834,-0.0832,0,0,0,0,0,0,0,0,0,0,0,0,0,-0.1194,-0.1192,-0.1076,-0.1074,-0.1073,-0.0988,-0.0987,-0.0985,-0.0932,-0.0932,-0.0931,-0.0931,-0.0837,-0.0834,-0.0832,0,0,0,0,0,0,0,0,0,0,0,0,0,-0.1128,-0.1192,-0.1076,-0.1037,-0.1032,-0.0988,-0.0987,-0.0985,-0.0932,-0.0932,-0.0931,-0.0931,-0.0838,-0.0835,-0.0831,-0.0818,0,0,-0.0821,-0.0819,0,0,0,0,0,0,0,0,-0.1132,-0.1124,-0.1043,-0.1039,-0.1034,-0.097,-0.0994,-0.0929,-0.0932,-0.097,-0.0931,-0.0931,-0.0881,-0.0874,-0.0858,-0.0813,-0.0809,-0.0821,-0.0819,-0.0817,-0.0816,0,0,0,0,0,0,0,-0.1137,-0.1127,-0.1041,-0.1042,-0.1037,-0.1022,-0.1013,-0.0981,-0.0928,-0.0967,-0.0963,-0.0953,-0.0878,-0.0862,-0.0856,-0.0808,-0.0821,-0.0818,-0.0816,-0.0814,-0.075,-0.075,0,0,0,0,0,0,-0.1148,-0.1131,-0.1043,-0.1038,-0.1083,-0.1021,-0.101,-0.0991,-0.0929,-0.0919,-0.0954,-0.0951,-0.0868,-0.086,-0.0852,-0.0833,-0.0817,-0.0814,-0.0812,-0.0749,-0.075,-0.075,0,0,0,0,0,0,-0.1151,-0.1141,-0.1047,-0.1084,-0.1071,-0.1019,-0.0999,-0.099,-0.0973,-0.0919,-0.0909,-0.0946,-0.0867,-0.0857,-0.0828,-0.0829,-0.0812,-0.0809,-0.0749,-0.0749,-0.075,-0.0796,0,0,0,0,0,0,-0.1154,-0.1142,-0.1137,-0.1084,-0.1069,-0.1025,-0.0999,-0.0988,-0.0968,-0.0964,-0.091,-0.09,-0.0866,-0.0833,-0.0824,-0.0824,-0.0807,-0.0749,-0.0749,-0.075,-0.0794,-0.0798,-0.0801,0,0,0,0,0,-0.1159,-0.1152,-0.1137,-0.1126,-0.1062,-0.1025,-0.1016,-0.0979,-0.0968,-0.0962,-0.0928,-0.0902,-0.0831,-0.083,-0.082,-0.0819,-0.0748,-0.0749,-0.075,-0.0792,-0.0797,-0.0801,0,0,0,0,0,0,-0.1204,-0.1144,-0.1127,-0.1103,-0.107,-0.1016,-0.1007,-0.0985,-0.0952,-0.095,-0.0903,-0.0891,-0.0867,-0.084,-0.084,-0.0804,-0.0787,-0.0785,-0.0822,-0.0826,-0.083,-0.0837,-0.0804,0,0,0,0,0,-0.1211,-0.1188,-0.1136,-0.112,-0.1105,-0.1059,-0.1042,-0.1016,-0.0979,-0.0964,-0.0928,-0.0892,-0.0862,-0.0842,-0.0811,-0.079,-0.0778,-0.0784,-0.0788,-0.0791,-0.079,-0.0778,-0.0781,-0.0753,-0.0753,-0.0753,0,0,-0.1225,-0.119,-0.1178,-0.1128,-0.1099,-0.1076,-0.1048,-0.1023,-0.1005,-0.096,-0.0931,-0.0903,-0.086,-0.0835,-0.0822,-0.0812,-0.0796,-0.0792,-0.0795,-0.0793,-0.078,-0.0782,-0.0785,-0.0753,-0.0753,-0.0753,0,0,-0.124,-0.1211,-0.1195,-0.1168,-0.1126,-0.1096,-0.1092,-0.1043,-0.1023,-0.0994,-0.0961,-0.0937,-0.0886,-0.0857,-0.0836,-0.0843,-0.0818,-0.0834,-0.0853,-0.0841,-0.0844,-0.0845,-0.0849,-0.085,-0.0833,-0.0833,-0.0833,0,-0.1263,-0.1227,-0.1189,-0.1167,-0.1147,-0.1108,-0.1091,-0.1066,-0.1015,-0.1002,-0.0992,-0.0928,-0.0896,-0.0865,-0.0867,-0.085,-0.0845,-0.0839,-0.0847,-0.0848,-0.0849,-0.0852,-0.0853,-0.0836,-0.0835,-0.0835,-0.0835,0,-0.1257,-0.1233,-0.1225,-0.118,-0.1158,-0.1139,-0.1098,-0.1081,-0.1057,-0.1029,-0.1,-0.0961,-0.0922,-0.0913,-0.0888,-0.0878,-0.0874,-0.0856,-0.0837,-0.0855,-0.0856,-0.0857,-0.0839,-0.0838,-0.0837,-0.0837,0,0,-0.1295,-0.1232,-0.123,-0.121,-0.1162,-0.1142,-0.1121,-0.1086,-0.1072,-0.1039,-0.1021,-0.0979,-0.0963,-0.0939,-0.0912,-0.0902,-0.0911,-0.0885,-0.0883,-0.0892,-0.0899,-0.0913,-0.0915,-0.0895,-0.0895,-0.0895,-0.0903,0,-0.1303,-0.1266,-0.1233,-0.1207,-0.1185,-0.1149,-0.1131,-0.11,-0.1073,-0.1049,-0.1019,-0.0991,-0.0971,-0.0957,-0.0946,-0.0913,-0.0912,-0.0912,-0.0877,-0.0876,-0.0889,-0.0915,-0.0929,-0.0939,-0.0903,-0.0903,-0.0903,0,-0.1306,-0.1278,-0.1251,-0.1208,-0.1197,-0.1182,-0.1148,-0.1126,-0.1089,-0.107,-0.1046,-0.1017,-0.0994,-0.0979,-0.0946,-0.0946,-0.093,-0.0912,-0.0911,-0.0907,-0.0891,-0.0912,-0.0941,-0.0942,-0.0904,-0.0904,-0.0903,0,-0.1338,-0.1293,-0.1271,-0.1255,-0.1204,-0.1194,-0.1172,-0.1135,-0.1117,-0.1086,-0.1074,-0.1041,-0.1022,-0.0997,-0.0961,-0.0953,-0.0932,-0.0913,-0.0915,-0.0916,-0.0912,-0.0913,-0.0939,-0.0902,-0.0902,-0.0902,-0.0902,0,-0.135,-0.1336,-0.1286,-0.1272,-0.1255,-0.1217,-0.12,-0.1175,-0.1143,-0.1124,-0.109,-0.1073,-0.1026,-0.1003,-0.0974,-0.0952,-0.0943,-0.0927,-0.092,-0.093,-0.0932,-0.0919,-0.0917,-0.0902,-0.0902,-0.0902,-0.0902,0,-0.1382,-0.1348,-0.1323,-0.1277,-0.1266,-0.1255,-0.1215,-0.1201,-0.1174,-0.115,-0.1142,-0.1098,-0.107,-0.1031,-0.099,-0.097,-0.0952,-0.094,-0.0965,-0.0961,-0.0965,-0.0965,-0.0984,-0.0985,-0.0947,-0.0947,-0.0948,0,-0.1392,-0.1381,-0.1335,-0.1321,-0.1301,-0.1278,-0.1259,-0.1222,-0.1204,-0.1163,-0.1154,-0.1123,-0.1097,-0.1052,-0.1016,-0.0985,-0.0972,-0.0981,-0.0967,-0.0979,-0.0973,-0.0974,-0.0973,-0.0984,-0.0985,-0.0985,-0.0985,0,-0.1414,-0.1399,-0.1374,-0.1345,-0.1325,-0.1299,-0.1272,-0.1262,-0.1218,-0.12,-0.1172,-0.1152,-0.1111,-0.1081,-0.1045,-0.1021,-0.0996,-0.0991,-0.0989,-0.1,-0.1015,-0.1008,-0.0975,-0.099,-0.0989,-0.0989,-0.0989,-0.0989,-0.1435,-0.1424,-0.1391,-0.1366,-0.1342,-0.1318,-0.1303,-0.1275,-0.1251,-0.1217,-0.1196,-0.1168,-0.1134,-0.1084,-0.1061,-0.1039,-0.1029,-0.1027,-0.1026,-0.1027,-0.1031,-0.102,-0.1032,-0.1032,-0.1032,-0.1031,-0.1031,0,-0.1456,-0.1434,-0.1411,-0.1375,-0.1356,-0.1336,-0.1306,-0.129,-0.1268,-0.1238,-0.1214,-0.1182,-0.1153,-0.1116,-0.1085,-0.1074,-0.1062,-0.1067,-0.1067,-0.1063,-0.1041,-0.1045,-0.1078,-0.1078,-0.1078,-0.1078,-0.1078,-0.1078,-0.1464,-0.1445,-0.1426,-0.1394,-0.1371,-0.1346,-0.133,-0.1308,-0.1285,-0.1252,-0.1229,-0.1205,-0.1173,-0.114,-0.1113,-0.1102,-0.1092,-0.1101,-0.1088,-0.1068,-0.1064,-0.106,-0.1064,-0.1099,-0.1099,-0.1111,-0.1111,-0.1111]},{"header":{"parameterUnit":"m.s-1","parameterCategory":1,"la1":30.2991,"la2":30.254,"lo1":-89.0895,"lo2":-89.0444,"dy":0.0017,"dx":0.0017,"nx":28,"ny":28,"refTime":"2026-02-13T03:00:00:Z","depth":0,"parameterNumber":3,"parameterNumberName":"V-component_of_WINDS"},"data":[0,0,0,0,0,0,0,0,0,0,0,0,0,0,0,0,0,0,0,0,0,0,0,0,0,0,0,0,0,0,0,0,0,0,0,0,0,0,0,0,0,0,0,0,0,0,0,0,0,0,0,0,0,0,0,0,0,0,1.799,1.799,0,1.7975,1.7975,1.7975,1.8021,1.8022,1.8024,1.8025,1.8001,1.7999,1.7997,0,0,0,0,0,0,0,0,0,0,0,0,0,1.8052,1.8051,1.799,1.799,1.799,1.7975,1.7975,1.7975,1.8021,1.8022,1.8024,1.8026,1.8002,1.7999,1.7997,0,0,0,0,0,0,0,0,0,0,0,0,0,1.803,1.8051,1.799,1.8011,1.8013,1.7975,1.7975,1.7975,1.802,1.8023,1.8025,1.8027,1.8002,1.7999,1.7997,1.7935,0,0,1.7987,1.7986,0,0,0,0,0,0,0,0,1.8031,1.8027,1.8009,1.801,1.8012,1.8002,1.7988,1.7961,1.802,1.8017,1.8025,1.8028,1.7999,1.7997,1.7989,1.7934,1.7933,1.7987,1.7985,1.7984,1.7983,0,0,0,0,0,0,0,1.8033,1.8028,1.7984,1.8008,1.801,1.8019,1.8018,1.7983,1.7996,1.8018,1.8021,1.8019,1.8,1.7991,1.7988,1.7933,1.7987,1.7985,1.7983,1.7982,1.7826,1.7824,0,0,0,0,0,0,1.8032,1.8029,1.7985,1.7984,1.8027,1.8016,1.8016,1.8003,1.7997,1.7998,1.8017,1.8021,1.7995,1.7992,1.7988,1.7915,1.7984,1.7981,1.798,1.7829,1.7826,1.7823,0,0,0,0,0,0,1.8034,1.8028,1.7985,1.8008,1.8003,1.8013,1.7999,1.8002,1.7993,1.7996,1.7998,1.8006,1.7997,1.7992,1.7948,1.7915,1.798,1.7977,1.7831,1.7828,1.7825,1.7769,0,0,0,0,0,0,1.8035,1.8028,1.8006,1.8007,1.8002,1.7948,1.7997,1.8,1.7989,1.7994,1.7987,1.7987,1.7998,1.7953,1.7945,1.7912,1.7975,1.7834,1.783,1.7826,1.7774,1.7764,1.7756,0,0,0,0,0,1.8037,1.7989,1.8005,1.7999,1.7975,1.7946,1.7943,1.7959,1.7986,1.7963,1.7965,1.7987,1.792,1.7948,1.794,1.7905,1.7837,1.7831,1.7826,1.7778,1.7766,1.7756,0,0,0,0,0,0,1.7981,1.799,1.8007,1.7959,1.7952,1.7954,1.7926,1.7946,1.7929,1.7934,1.7952,1.795,1.7903,1.79,1.793,1.7845,1.7883,1.7876,1.7849,1.7837,1.7828,1.7829,1.7973,0,0,0,0,0,1.7964,1.7943,1.795,1.7906,1.7903,1.7915,1.7903,1.7916,1.7908,1.7905,1.7904,1.7893,1.787,1.7854,1.7832,1.7775,1.7773,1.7747,1.7738,1.773,1.7723,1.7691,1.768,1.7806,1.7806,1.7806,0,0,1.7927,1.7929,1.7913,1.7895,1.7892,1.7866,1.7912,1.7883,1.7864,1.7899,1.7859,1.7858,1.7847,1.7797,1.7774,1.7792,1.7688,1.7723,1.7718,1.7714,1.7685,1.7673,1.7662,1.7803,1.7803,1.7804,0,0,1.7846,1.7846,1.781,1.7806,1.7801,1.781,1.7801,1.7801,1.7802,1.7763,1.7789,1.7766,1.7725,1.7717,1.7707,1.7625,1.7644,1.7617,1.7569,1.7538,1.7528,1.7519,1.7488,1.7477,1.7611,1.7611,1.761,0,1.7799,1.7765,1.7788,1.7758,1.7749,1.7784,1.7746,1.774,1.7727,1.7718,1.7741,1.7691,1.7686,1.7634,1.7614,1.7606,1.7594,1.7617,1.7528,1.7519,1.7511,1.7482,1.7471,1.7607,1.7608,1.7608,1.7608,0,1.7707,1.7683,1.7654,1.7644,1.7632,1.7598,1.7613,1.7598,1.7613,1.7619,1.7577,1.7574,1.7552,1.7541,1.7554,1.749,1.7502,1.7526,1.7563,1.7496,1.7469,1.7458,1.7602,1.7604,1.7605,1.7605,0,0,1.7588,1.7593,1.7582,1.7578,1.7576,1.7556,1.7524,1.7506,1.7492,1.7482,1.7453,1.742,1.7442,1.7431,1.7444,1.7417,1.7351,1.7444,1.7444,1.7426,1.7279,1.7259,1.7246,1.7365,1.7363,1.7362,1.7279,0,1.7507,1.7455,1.7475,1.7419,1.7396,1.743,1.7402,1.7396,1.7401,1.7381,1.7385,1.7361,1.7393,1.7387,1.7362,1.7364,1.7321,1.7371,1.7336,1.7334,1.7336,1.7232,1.7211,1.7134,1.7269,1.7267,1.7266,0,1.7406,1.7395,1.7338,1.7341,1.7332,1.7307,1.7292,1.7273,1.7267,1.7273,1.7262,1.728,1.7246,1.7286,1.7239,1.7272,1.7259,1.7258,1.7255,1.7251,1.7294,1.7223,1.711,1.7097,1.725,1.7251,1.7252,0,1.7323,1.7294,1.7257,1.7252,1.7255,1.7236,1.7236,1.7232,1.7221,1.7207,1.7199,1.7181,1.717,1.7155,1.7168,1.7196,1.7117,1.7158,1.7119,1.7118,1.7098,1.7099,1.6979,1.7093,1.7094,1.7094,1.7094,0,1.7229,1.7192,1.722,1.7196,1.7156,1.7179,1.7137,1.7141,1.7138,1.7114,1.7142,1.7118,1.7137,1.7115,1.7124,1.7083,1.7078,1.7079,1.7082,1.7076,1.7075,1.7066,1.707,1.7091,1.7091,1.7092,1.7093,0,1.7128,1.7145,1.7106,1.7114,1.7115,1.7084,1.7089,1.7066,1.7075,1.7044,1.7038,1.705,1.7025,1.7037,1.701,1.7017,1.6962,1.6973,1.6965,1.6967,1.6926,1.6929,1.6794,1.6777,1.6904,1.6903,1.6902,0,1.7067,1.704,1.7045,1.7033,1.7032,1.7011,1.7,1.7022,1.7009,1.7001,1.6979,1.6957,1.6941,1.6899,1.6903,1.6883,1.6892,1.6846,1.6889,1.6883,1.6889,1.689,1.6886,1.6837,1.6835,1.6834,1.6833,0,1.6955,1.6965,1.695,1.6938,1.6925,1.6915,1.6908,1.6895,1.6917,1.6901,1.6878,1.6865,1.684,1.6817,1.68,1.6797,1.6817,1.6821,1.681,1.6802,1.6798,1.6798,1.694,1.6823,1.6824,1.6824,1.6825,1.6825,1.687,1.6848,1.6849,1.6831,1.6829,1.6821,1.6801,1.6808,1.679,1.6773,1.6787,1.6759,1.6753,1.6733,1.6727,1.6704,1.6722,1.6707,1.6702,1.6698,1.6692,1.6804,1.6701,1.6701,1.6702,1.6702,1.6702,0,1.6758,1.6761,1.6745,1.6736,1.6721,1.6747,1.674,1.6725,1.6701,1.6696,1.6681,1.6654,1.6632,1.6636,1.6616,1.6597,1.6606,1.659,1.6591,1.6589,1.6678,1.6688,1.6584,1.6584,1.6584,1.6584,1.6584,1.6584,1.6698,1.6662,1.6673,1.6635,1.6638,1.6613,1.6607,1.66,1.6596,1.6566,1.6549,1.6554,1.6551,1.6532,1.6513,1.6515,1.6505,1.6486,1.649,1.6572,1.6583,1.6594,1.6604,1.6484,1.6484,1.6404,1.6403,1.6403]}]]